Tillbaka till svenska Fidonet
English   Information   Debug  
FILM   0/18
FNEWS_PUBLISH   4926
FN_SYSOP   42201
FN_SYSOP_OLD1   71952
FTP_FIDO   0/2
FTSC_PUBLIC   0/13972
FUNNY   0/4886
GENEALOGY.EUR   0/71
GET_INFO   105
GOLDED   0/408
HAM   5728/16660
HOLYSMOKE   0/6791
HOT_SITES   0/1
HTMLEDIT   0/71
HUB203   466
HUB_100   264
HUB_400   39
HUMOR   0/29
IC   0/2851
INTERNET   0/424
INTERUSER   0/3
IP_CONNECT   719
JAMNNTPD   0/233
JAMTLAND   0/47
KATTY_KORNER   0/41
LAN   0/16
LINUX-USER   0/19
LINUXHELP   0/1155
LINUX   0/22300
LINUX_BBS   0/957
mail   18.68
mail_fore_ok   249
MENSA   0/341
MODERATOR   0/102
MONTE   0/992
MOSCOW_OKLAHOMA   0/1245
MUFFIN   0/783
MUSIC   0/321
N203_STAT   938
N203_SYSCHAT   313
NET203   321
NET204   69
NET_DEV   0/10
NORD.ADMIN   0/101
NORD.CHAT   0/2572
NORD.FIDONET   189
NORD.HARDWARE   0/28
NORD.KULTUR   0/114
NORD.PROG   0/32
NORD.SOFTWARE   0/88
NORD.TEKNIK   0/58
NORD   0/453
OCCULT_CHAT   0/93
OS2BBS   0/787
OS2DOSBBS   0/580
OS2HW   0/42
OS2INET   0/37
OS2LAN   0/134
OS2PROG   0/36
OS2REXX   0/113
OS2USER-L   207
OS2   0/4830
OSDEBATE   4240/18996
PASCAL   0/490
PERL   0/457
PHP   0/45
POINTS   0/405
POLITICS   0/29554
POL_INC   0/14731
PSION   103
R20_ADMIN   1133
R20_AMATORRADIO   0/2
R20_BEST_OF_FIDONET   16
R20_CHAT   0/896
R20_DEPP   0/3
R20_DEV   400
R20_ECHO2   1830
R20_ECHOPRES   0/35
R20_ESTAT   0/719
R20_FIDONETPROG...
...RAM.MYPOINT
  0/2
R20_FIDONETPROGRAM   0/22
R20_FIDONET   0/248
R20_FILEFIND   0/24
R20_FILEFOUND   0/22
R20_HIFI   0/3
R20_INFO2   3723
R20_INTERNET   0/12940
R20_INTRESSE   0/60
R20_INTR_KOM   0/99
R20_KANDIDAT.CHAT   42
R20_KANDIDAT   28
R20_KOM_DEV   112
R20_KONTROLL   0/13360
R20_KORSET   0/18
R20_LOKALTRAFIK   0/24
R20_MODERATOR   0/1852
R20_NC   76
R20_NET200   245
R20_NETWORK.OTH...
...ERNETS
  0/13
R20_OPERATIVSYS...
...TEM.LINUX
  0/44
R20_PROGRAMVAROR   0/1
R20_REC2NEC   534
R20_SFOSM   0/341
R20_SF   0/108
R20_SPRAK.ENGLISH   0/1
R20_SQUISH   107
R20_TEST   2
R20_WORST_OF_FIDONET   20
RAR   0/9
RA_MULTI   106
RA_UTIL   0/162
REGCON.EUR   0/2068
REGCON   0/13
SCIENCE   0/1206
SF   0/239
SHAREWARE_SUPPORT   0/5146
SHAREWRE   0/14
SIMPSONS   0/169
STATS_OLD1   0/2539.065
STATS_OLD2   0/2530
STATS_OLD3   0/2395.095
STATS_OLD4   0/1692.25
SURVIVOR   0/495
SYSOPS_CORNER   0/3
SYSOP   0/84
TAGLINES   0/112
TEAMOS2   0/4530
TECH   0/2617
TEST.444   0/105
TRAPDOOR   0/19
TREK   0/755
TUB   0/290
UFO   0/40
UNIX   0/1316
USA_EURLINK   0/102
USR_MODEMS   0/1
VATICAN   0/2740
VIETNAM_VETS   0/14
VIRUS   0/378
VIRUS_INFO   0/201
VISUAL_BASIC   0/473
WHITEHOUSE   0/5187
WIN2000   0/101
WIN32   0/30
WIN95   0/4291
WIN95_OLD1   0/70272
WINDOWS   250/1517
WWB_SYSOP   0/419
WWB_TECH   0/810
ZCC-PUBLIC   0/1
ZEC   4

 
4DOS   0/134
ABORTION   0/7
ALASKA_CHAT   0/506
ALLFIX_FILE   0/1313
ALLFIX_FILE_OLD1   0/7997
ALT_DOS   0/152
AMATEUR_RADIO   0/1039
AMIGASALE   0/14
AMIGA   0/331
AMIGA_INT   0/1
AMIGA_PROG   0/20
AMIGA_SYSOP   0/26
ANIME   0/15
ARGUS   0/924
ASCII_ART   0/340
ASIAN_LINK   0/651
ASTRONOMY   0/417
AUDIO   0/92
AUTOMOBILE_RACING   0/105
BABYLON5   0/17862
BAG   135
BATPOWER   0/361
BBBS.ENGLISH   0/382
BBSLAW   0/109
BBS_ADS   0/5290
BBS_INTERNET   0/507
BIBLE   0/3563
BINKD   0/1119
BINKLEY   0/215
BLUEWAVE   0/2173
CABLE_MODEMS   0/25
CBM   0/46
CDRECORD   0/66
CDROM   0/20
CLASSIC_COMPUTER   0/378
COMICS   0/15
CONSPRCY   0/899
COOKING   41444
COOKING_OLD1   0/24719
COOKING_OLD2   0/40862
COOKING_OLD3   0/37489
COOKING_OLD4   0/35496
COOKING_OLD5   9370
C_ECHO   0/189
C_PLUSPLUS   0/31
DIRTY_DOZEN   0/201
DOORGAMES   0/2285
DOS_INTERNET   0/196
duplikat   6102
ECHOLIST   0/18295
EC_SUPPORT   0/318
ELECTRONICS   0/359
ELEKTRONIK.GER   1534
ENET.LINGUISTIC   0/13
ENET.POLITICS   0/4
ENET.SOFT   0/11701
ENET.SYSOP   34296
ENET.TALKS   0/32
ENGLISH_TUTOR   0/2000
EVOLUTION   0/1335
FDECHO   0/217
FDN_ANNOUNCE   0/7068
FIDONEWS   25062
FIDONEWS_OLD1   0/49742
FIDONEWS_OLD2   0/35949
FIDONEWS_OLD3   0/30874
FIDONEWS_OLD4   0/37224
FIDO_SYSOP   12922
FIDO_UTIL   0/180
FILEFIND   0/209
FILEGATE   0/212
Möte HAM, 16660 texter
 lista första sista föregående nästa
Text 5326, 993 rader
Skriven 2012-05-31 23:01:21 av Amsat List (1:323/120.0)
Ärende: [keps] orb12152.amsa
============================
[keps] orb12152.amsa

Sender: keps-bounces@amsat.org
Return-Path: <keps-bounces@amsat.org>
X-Rcpt: craig.healy@chowda.com
X-UIDL: 1338518726.842

SB KEPS @ AMSAT  $ORB12152.O
Orbital Elements  12152.OSCAR

HR AMSAT ORBITAL ELEMENTS FOR OSCAR SATELLITES
FROM WA5QGD FORT WORTH,TX May 31, 2012
Send SUBSCRIBE KEPS/UNSUBSCRIBE KEPS to majordomo@amsat.org only
BID: ORB12152.O
TO ALL RADIO AMATEURS BT

Satellite: AO-07
Catalog number: 07530
Epoch time:      12151.58811357
Element set:     392
Inclination:      101.4013 deg
RA of node:       149.4787 deg
Eccentricity:    0.0011811
Arg of perigee:   318.5818 deg
Mean anomaly:     041.4347 deg
Mean motion:   12.53589516 rev/day
Decay rate:       -2.7e-07 rev/day^2
Epoch rev:           71784
Checksum:              296

Satellite: FO-29
Catalog number: 24278
Epoch time:      12152.47336529
Element set:     853
Inclination:      098.5853 deg
RA of node:       255.3151 deg
Eccentricity:    0.0351261
Arg of perigee:   072.6425 deg
Mean anomaly:     291.2811 deg
Mean motion:   13.52983724 rev/day
Decay rate:        1.2e-07 rev/day^2
Epoch rev:           77969
Checksum:              324

Satellite: SO-33
Catalog number: 25509
Epoch time:      12151.87192716
Element set:    0245
Inclination:      031.4312 deg
RA of node:       071.6736 deg
Eccentricity:    0.0351756
Arg of perigee:   051.7820 deg
Mean anomaly:     311.3975 deg
Mean motion:   14.28752908 rev/day
Decay rate:       4.43e-06 rev/day^2
Epoch rev:           71017
Checksum:              295

Satellite: RS-22
Catalog number: 27939
Epoch time:      12152.52595080
Element set:     404
Inclination:      097.8146 deg
RA of node:       354.1969 deg
Eccentricity:    0.0012797
Arg of perigee:   322.7206 deg
Mean anomaly:     037.3132 deg
Mean motion:   14.64023021 rev/day
Decay rate:       3.62e-06 rev/day^2
Epoch rev:           46344
Checksum:              291

Satellite: VO-52
Catalog number: 28650
Epoch time:      12151.84913769
Element set:    0115
Inclination:      097.5979 deg
RA of node:       183.6508 deg
Eccentricity:    0.0027812
Arg of perigee:   097.6351 deg
Mean anomaly:     262.8044 deg
Mean motion:   14.82936594 rev/day
Decay rate:       8.48e-06 rev/day^2
Epoch rev:           38240
Checksum:              344

Satellite: HO-68
Catalog number: 36122
Epoch time:      12152.26582745
Element set:     511
Inclination:      100.3617 deg
RA of node:       211.9522 deg
Eccentricity:    0.0007703
Arg of perigee:   145.5705 deg
Mean anomaly:     214.5908 deg
Mean motion:   13.16295907 rev/day
Decay rate:       -4.4e-07 rev/day^2
Epoch rev:           11816
Checksum:              278

/EX
SB KEPS @ AMSAT  $ORB12152.D
Orbital Elements  12152.MICROS

HR AMSAT ORBITAL ELEMENTS FOR THE MICROSATS
FROM WA5QGD FORT WORTH,TX May 31, 2012
Send SUBSCRIBE KEPS/UNSUBSCRIBE KEPS to majordomo@amsat.org only
BID: ORB12152.D
TO ALL RADIO AMATEURS BT

Satellite: UO-11
Catalog number: 14781
Epoch time:      12151.95353200
Element set:    0892
Inclination:      097.9557 deg
RA of node:       211.6239 deg
Eccentricity:    0.0010185
Arg of perigee:   089.2919 deg
Mean anomaly:     270.9462 deg
Mean motion:   14.80443199 rev/day
Decay rate:       5.28e-06 rev/day^2
Epoch rev:           51738
Checksum:              320

Satellite: AO-16
Catalog number: 20439
Epoch time:      12151.96932977
Element set:    0478
Inclination:      098.4291 deg
RA of node:       095.8266 deg
Eccentricity:    0.0010137
Arg of perigee:   207.0356 deg
Mean anomaly:     153.0302 deg
Mean motion:   14.32053373 rev/day
Decay rate:       1.05e-06 rev/day^2
Epoch rev:           16753
Checksum:              293

Satellite: LO-19
Catalog number: 20442
Epoch time:      12151.85522397
Element set:    0410
Inclination:      098.3947 deg
RA of node:       098.7824 deg
Eccentricity:    0.0011434
Arg of perigee:   198.4416 deg
Mean anomaly:     161.6356 deg
Mean motion:   14.32271812 rev/day
Decay rate:        9.8e-07 rev/day^2
Epoch rev:           16770
Checksum:              310

Satellite: AO-27
Catalog number: 22825
Epoch time:      12151.88683577
Element set:    0118
Inclination:      098.5742 deg
RA of node:       094.9715 deg
Eccentricity:    0.0008135
Arg of perigee:   337.3220 deg
Mean anomaly:     022.7593 deg
Mean motion:   14.29460509 rev/day
Decay rate:        9.2e-07 rev/day^2
Epoch rev:           97400
Checksum:              317

Satellite: IO-26
Catalog number: 22826
Epoch time:      12152.59085686
Element set:     865
Inclination:      098.5686 deg
RA of node:       096.0393 deg
Eccentricity:    0.0008581
Arg of perigee:   328.8168 deg
Mean anomaly:     031.2506 deg
Mean motion:   14.29734643 rev/day
Decay rate:       1.14e-06 rev/day^2
Epoch rev:           97423
Checksum:              336

Satellite: GO-32
Catalog number: 25397
Epoch time:      12151.61158424
Element set:    0789
Inclination:      098.3618 deg
RA of node:       131.1877 deg
Eccentricity:    0.0001295
Arg of perigee:   022.4947 deg
Mean anomaly:     337.6285 deg
Mean motion:   14.23276576 rev/day
Decay rate:       1.42e-06 rev/day^2
Epoch rev:           72152
Checksum:              315

Satellite: NO-44
Catalog number: 26931
Epoch time:      12152.53272562
Element set:      52
Inclination:      067.0511 deg
RA of node:       163.2651 deg
Eccentricity:    0.0007678
Arg of perigee:   265.8413 deg
Mean anomaly:     094.1816 deg
Mean motion:   14.29799433 rev/day
Decay rate:       2.89e-06 rev/day^2
Epoch rev:           55686
Checksum:              319

